TimeCST,TemperatureF,Dew PointF,Humidity,Sea Level PressureIn,VisibilityMPH,Wind Direction,Wind SpeedMPH,Gust SpeedMPH,PrecipitationIn,Events,Conditions,WindDirDegrees,DateUTC
12:53 AM,30.9,25.0,79,30.11,8.0,South,15.0,-,N/A,,Mostly Cloudy,170,2013-12-13 06:53:00
1:53 AM,32.0,26.1,79,30.08,9.0,SSE,12.7,-,N/A,,Overcast,160,2013-12-13 07:53:00
2:53 AM,34.0,27.0,75,30.04,9.0,South,18.4,-,N/A,,Overcast,170,2013-12-13 08:53:00
3:53 AM,36.0,28.0,73,30.01,9.0,South,19.6,27.6,N/A,,Overcast,170,2013-12-13 09:53:00
4:53 AM,37.0,28.9,73,29.97,9.0,South,13.8,-,N/A,,Overcast,170,2013-12-13 10:53:00
5:53 AM,37.9,30.0,73,29.96,9.0,South,19.6,24.2,N/A,,Overcast,170,2013-12-13 11:53:00
6:53 AM,37.0,30.0,76,29.93,9.0,South,17.3,-,N/A,,Overcast,170,2013-12-13 12:53:00
7:53 AM,37.9,32.0,79,29.92,10.0,South,17.3,-,N/A,,Mostly Cloudy,180,2013-12-13 13:53:00
8:53 AM,39.0,33.1,79,29.91,7.0,South,16.1,23.0,N/A,,Mostly Cloudy,180,2013-12-13 14:53:00
9:53 AM,39.9,34.0,79,29.90,7.0,South,20.7,-,N/A,,Scattered Clouds,170,2013-12-13 15:53:00
10:53 AM,43.0,34.0,71,29.88,7.0,South,20.7,-,N/A,,Mostly Cloudy,180,2013-12-13 16:53:00
11:53 AM,46.0,35.1,66,29.84,9.0,South,21.9,27.6,N/A,,Mostly Cloudy,180,2013-12-13 17:53:00
12:14 PM,46.4,35.6,66,29.81,9.0,South,20.7,25.3,N/A,,Mostly Cloudy,190,2013-12-13 18:14:00
12:53 PM,45.0,36.0,71,29.81,8.0,South,15.0,21.9,N/A,,Mostly Cloudy,190,2013-12-13 18:53:00
1:53 PM,45.0,37.0,74,29.79,8.0,South,13.8,24.2,N/A,,Overcast,180,2013-12-13 19:53:00
2:53 PM,46.0,37.9,73,29.77,9.0,South,11.5,-,0.00,Rain,Light Rain,180,2013-12-13 20:53:00
3:08 PM,46.4,37.4,71,29.75,8.0,South,9.2,-,0.00,,Mostly Cloudy,180,2013-12-13 21:08:00
3:53 PM,45.0,37.0,74,29.78,8.0,SE,5.8,-,0.00,,Scattered Clouds,140,2013-12-13 21:53:00
4:01 PM,44.6,37.4,76,29.76,7.0,SSE,6.9,-,N/A,,Mostly Cloudy,150,2013-12-13 22:01:00
4:53 PM,43.0,37.0,80,29.79,7.0,ESE,8.1,-,N/A,,Mostly Cloudy,120,2013-12-13 22:53:00
5:12 PM,41.0,37.4,87,29.77,7.0,SE,8.1,-,N/A,,Scattered Clouds,130,2013-12-13 23:12:00
5:53 PM,37.9,36.0,93,29.80,7.0,East,4.6,-,N/A,,Scattered Clouds,100,2013-12-13 23:53:00
6:53 PM,39.0,36.0,89,29.83,6.0,NE,4.6,-,N/A,,Mostly Cloudy,40,2013-12-14 00:53:00
7:53 PM,39.0,37.0,93,29.84,6.0,SE,3.5,-,N/A,,Overcast,130,2013-12-14 01:53:00
8:53 PM,39.9,37.0,89,29.85,5.0,Calm,Calm,-,N/A,,Overcast,0,2013-12-14 02:53:00
9:53 PM,39.0,37.0,93,29.87,5.0,NNW,6.9,-,N/A,,Overcast,330,2013-12-14 03:53:00
10:53 PM,39.0,33.1,79,29.89,7.0,NNW,15.0,-,N/A,,Overcast,340,2013-12-14 04:53:00
11:34 PM,37.4,32.0,81,29.90,7.0,North,12.7,-,N/A,,Overcast,350,2013-12-14 05:34:00
11:53 PM,37.9,32.0,79,29.92,7.0,North,13.8,-,N/A,,Overcast,350,2013-12-14 05:53:00